Location: Austin
(30.3000°N, 97.7500°W)
Time: 12:27:23
(UTC-05:00)

Milstar 3 Cent rocket - Pass Details

Date: 26 May 2023
Orbit: 706 x 5146 km, 28.3° (Epoch: 30 May)

Event Time Altitude Azimuth Distance (km) Brightness Sun altitude
Rises 21:48:41 0° 198° (SSW) 3,378 5.1 -16.3°
Reaches altitude 10° 21:51:40 10° 177° (S) 2,742 4.5 -16.8°
Enters shadow 21:51:45 10° 176° (S) 2,730 4.5 -16.8°
Exits shadow 22:07:00 - 84° (E) 5,644 6.0 -19.4°
Sets 22:08:15 0° 82° (E) 6,028 6.2 -19.6°
